Date String (YYYY-MM-DD hh:mm:ss) UTC,Instrument flags,Ambient pressure (hPa),Sample flow (lpm),Bypass flow (lpm),Sample temperature (°C),Ambient temperature (°C),ASC tube jacket temperature (°C),LED temperature (°C),Box temperature (°C),Sample RH (%),Span deviation,Mass concentration (μg/m³),Mass concentration (μg/m³),Mass concentration (μg/m³)
DateTimeUTC,F1_M11,P_M11,Q1_M11,Q2_M11,T1_M11,T2_M11,T3_M11,T4_M11,T5_M11,U1_M11,ZSPAN_M11,X0_M11,X2_M11,X1_M11
2022-07-27 21:00:00,,0828.3,5.01,0.00,31.6,27.7,00.0,39.7,32.0,33.8,0002.4,0015.28,0007.34,0006.49
2022-07-27 21:01:00,,0828.3,4.99,0.00,31.6,28.0,00.0,39.7,32.0,34.1,0001.4,0015.42,0007.38,0006.51
2022-07-27 21:02:00,,0828.3,5.00,0.00,31.5,28.2,00.0,39.7,32.1,32.6,0000.8,0014.20,0007.41,0006.53
2022-07-27 21:03:00,,0828.3,5.00,0.00,31.5,28.3,00.0,39.7,32.2,32.7,0001.7,0013.66,0007.46,0006.56
2022-07-27 21:04:00,,0828.3,5.00,0.00,31.5,28.5,00.0,39.7,32.2,33.6,0000.0,0012.98,0007.53,0006.58
2022-07-27 21:05:00,,0828.3,5.00,0.00,31.5,28.5,00.0,39.7,32.2,33.8,0000.0,0013.29,0007.58,0006.61
2022-07-27 21:06:00,,0828.3,5.01,0.00,31.4,28.0,00.0,39.6,32.1,33.8,0000.0,0013.71,0007.63,0006.64
2022-07-27 21:07:00,,0828.2,4.99,0.00,31.3,27.5,00.0,39.6,32.0,34.2,0000.0,0013.90,0007.63,0006.64
2022-07-27 21:08:00,,0828.2,5.01,0.00,31.2,27.4,00.0,39.6,32.0,34.3,0000.0,0014.19,0007.68,0006.67
2022-07-27 21:09:00,,0828.2,4.99,0.00,31.1,27.5,00.0,39.5,31.9,34.7,0000.0,0014.29,0007.65,0006.68
2022-07-27 21:10:00,,0828.2,5.00,0.00,31.1,27.6,00.0,39.5,31.9,34.9,0000.0,0014.46,0007.65,0006.70
2022-07-27 21:11:00,,0828.2,5.00,0.00,31.1,27.8,00.0,39.5,32.0,34.6,0000.0,0014.98,0007.66,0006.73
2022-07-27 21:12:00,,0828.2,5.00,0.00,31.2,28.0,00.0,39.5,32.0,34.7,0000.0,0014.53,0007.61,0006.74
2022-07-27 21:13:00,,0828.2,5.00,0.00,31.3,28.2,00.0,39.5,32.2,33.7,0000.0,0014.39,0007.63,0006.76
2022-07-27 21:14:00,,0828.2,5.00,0.00,31.4,28.4,00.0,39.5,32.2,33.8,0000.0,0014.63,0007.66,0006.78
2022-07-27 21:15:00,,0828.2,5.00,0.00,31.4,28.2,00.0,39.4,32.2,33.7,0000.0,0014.26,0007.66,0006.78
2022-07-27 21:16:00,,0828.4,5.02,0.00,31.4,27.6,00.0,39.4,32.1,33.9,0000.0,0013.88,0007.67,0006.79
2022-07-27 21:17:00,,0828.2,4.99,0.00,31.3,27.4,00.0,39.4,32.0,34.2,0000.0,0013.71,0007.67,0006.79
2022-07-27 21:18:00,,0828.3,5.01,0.00,31.2,27.4,00.0,39.4,31.9,33.8,0000.0,0014.03,0007.70,0006.80
2022-07-27 21:19:00,,0828.2,4.99,0.00,31.1,27.5,00.0,39.4,31.8,33.9,0000.0,0014.32,0007.69,0006.82
2022-07-27 21:20:00,,0828.1,5.01,0.00,31.1,27.7,00.0,39.4,31.7,34.6,0000.0,0014.47,0007.68,0006.82
2022-07-27 21:21:00,,0828.2,4.99,0.00,31.1,27.9,00.0,39.4,31.9,34.6,0000.0,0014.10,0007.69,0006.85
2022-07-27 21:22:00,,0828.1,5.00,0.00,31.2,28.1,00.0,39.4,32.0,34.4,0000.0,0013.79,0007.73,0006.85
2022-07-27 21:23:00,,0828.1,5.00,0.00,31.2,28.3,00.0,39.4,32.0,34.2,0000.0,0013.67,0007.77,0006.87
2022-07-27 21:24:00,,0828.2,5.01,0.00,31.2,28.5,00.0,39.4,32.1,33.8,0000.0,0013.74,0007.80,0006.90
2022-07-27 21:25:00,,0828.1,5.01,0.00,31.2,28.3,00.0,39.4,32.1,33.8,0000.0,0013.28,0007.82,0006.92
2022-07-27 21:26:00,,0828.1,4.99,0.00,31.2,27.8,00.0,39.3,32.0,34.2,0000.0,0013.32,0007.83,0006.94
2022-07-27 21:27:00,,0828.0,5.01,0.00,31.1,27.4,00.0,39.3,32.0,34.9,0000.0,0013.15,0007.82,0006.97
2022-07-27 21:28:00,,0828.0,4.99,0.00,31.1,27.4,00.0,39.3,31.9,35.1,0000.0,0013.11,0007.84,0007.00
2022-07-27 21:29:00,,0828.1,5.00,0.00,31.1,27.5,00.0,39.3,31.9,33.9,0000.0,0012.49,0007.85,0007.02
2022-07-27 21:30:00,,0828.1,5.00,0.00,31.1,27.7,00.0,39.3,31.9,34.3,0000.0,0012.87,0007.89,0007.04
2022-07-27 21:31:00,,0828.1,5.00,0.00,31.2,27.9,00.0,39.3,31.9,34.3,0000.0,0013.45,0007.93,0007.06
2022-07-27 21:32:00,,0828.0,5.01,0.00,31.2,28.1,00.0,39.3,32.0,34.3,0000.0,0014.49,0007.96,0007.08
2022-07-27 21:33:00,,0828.0,4.99,0.00,31.2,28.3,00.0,39.4,32.0,33.7,-000.0,0014.73,0007.99,0007.11
2022-07-27 21:34:00,,0828.0,5.01,0.00,31.2,28.5,00.0,39.4,32.1,33.9,-000.3,0015.57,0008.00,0007.12
2022-07-27 21:35:00,,0828.0,5.00,0.00,31.2,28.5,00.0,39.4,32.1,33.6,-000.4,0015.95,0008.00,0007.14
2022-07-27 21:36:00,,0827.9,5.00,0.00,31.1,27.9,00.0,39.3,32.0,33.5,-000.6,0016.14,0007.98,0007.14
2022-07-27 21:37:00,,0827.9,5.00,0.00,31.0,27.5,00.0,39.3,31.9,34.3,-000.4,0016.76,0007.99,0007.16
2022-07-27 21:38:00,,0828.0,5.00,0.00,31.0,27.5,00.0,39.3,31.9,35.5,-000.4,0016.95,0007.97,0007.16
2022-07-27 21:39:00,,0828.0,5.00,0.00,31.0,27.6,00.0,39.3,31.9,34.7,-000.1,0017.98,0007.99,0007.15
2022-07-27 21:40:00,,0827.9,4.99,0.00,31.1,27.7,00.0,39.3,31.9,34.1,0000.0,0017.96,0007.97,0007.14
2022-07-27 21:41:00,,0827.9,5.01,0.00,31.2,27.9,00.0,39.3,31.9,34.0,0000.0,0017.15,0007.94,0007.14
2022-07-27 21:42:00,,0827.9,5.00,0.00,31.2,28.1,00.0,39.3,32.0,34.4,0000.0,0016.84,0007.94,0007.13
2022-07-27 21:43:00,,0827.9,5.00,0.00,31.2,28.3,00.0,39.3,32.0,34.4,0000.0,0016.22,0007.95,0007.13
2022-07-27 21:44:00,,0827.9,5.00,0.00,31.2,28.5,00.0,39.3,32.1,34.5,0000.0,0016.05,0007.93,0007.12
2022-07-27 21:45:00,,0827.9,5.00,0.00,31.2,28.5,00.0,39.4,32.1,34.5,0000.0,0015.35,0007.95,0007.11
2022-07-27 21:46:00,,0828.0,4.99,0.00,31.2,28.0,00.0,39.3,32.1,34.4,0000.0,0015.16,0008.02,0007.10
2022-07-27 21:47:00,,0828.0,5.01,0.00,31.1,27.5,00.0,39.3,32.0,34.3,0000.0,0016.28,0008.03,0007.09
2022-07-27 21:48:00,,0827.9,5.00,0.00,31.0,27.4,00.0,39.3,31.9,32.9,0000.0,0016.14,0008.06,0007.08
2022-07-27 21:49:00,,0828.0,5.01,0.00,30.9,27.5,00.0,39.3,31.8,31.9,0000.0,0015.91,0008.07,0007.08
2022-07-27 21:50:00,,0828.0,4.99,0.00,30.9,27.7,00.0,39.3,31.8,30.6,0000.0,0015.18,0008.05,0007.10
2022-07-27 21:51:00,,0828.0,5.01,0.00,30.8,27.9,00.0,39.3,31.8,30.7,0000.0,0015.16,0008.04,0007.10
2022-07-27 21:52:00,,0828.0,5.00,0.00,30.8,28.1,00.0,39.2,31.9,31.4,0000.0,0015.88,0008.06,0007.11
2022-07-27 21:53:00,,0828.0,5.00,0.00,30.8,28.3,00.0,39.2,32.0,32.2,0000.0,0016.41,0008.04,0007.12
2022-07-27 21:54:00,,0827.9,4.99,0.00,30.8,28.4,00.0,39.2,32.0,33.3,0000.0,0015.88,0008.02,0007.12
2022-07-27 21:55:00,,0827.9,5.01,0.00,30.8,27.9,00.0,39.2,31.9,33.1,0000.0,0015.89,0008.00,0007.13
2022-07-27 21:56:00,,0827.9,5.00,0.00,30.7,27.4,00.0,39.1,31.9,33.4,0000.0,0016.50,0008.02,0007.14
2022-07-27 21:57:00,,0827.9,5.00,0.00,30.6,27.3,00.0,39.1,31.8,33.1,0000.0,0017.01,0007.99,0007.16
2022-07-27 21:58:00,,0827.9,5.00,0.00,30.5,27.4,00.0,39.1,31.6,33.7,0000.0,0016.49,0007.99,0007.17
2022-07-27 21:59:00,,0827.8,5.00,0.00,30.5,27.6,00.0,39.1,31.6,33.8,0000.0,0015.75,0008.03,0007.20
